Simultaneous Nadir Overpasses (SNOs) Predictions

Prediction of SNOs between AURA and NPP Satellite Orbit:

Table of predicted SNOs for the next 14.0 days since TLE Epoch: 2/9/2018
Index Date (AURA) Time (AURA) Lat,Lon (AURA) SZA (AURA ) Date (NPP) Time (NPP) Lat,Lon (NPP) SZA (NPP ) Distance(km) Time Diff (sec)
1 02/10/2018 03:41:58 -79.70,-156.95 73.18 02/10/2018 03:41:14 -79.71,-156.82 73.17 2.81 44
2 02/10/2018 04:31:18 79.91, 12.33 106.49 02/10/2018 04:31:52 79.92, 12.42 106.45 1.79 34
3 02/12/2018 19:58:25 -79.74, -40.76 74.11 02/12/2018 19:58:05 -79.75, -40.71 74.10 1.16 20
4 02/12/2018 20:47:45 79.95, 128.51 105.57 02/12/2018 20:48:43 79.95, 128.53 105.52 0.35 58
5 02/15/2018 11:25:31 79.58, -93.69 105.25 02/15/2018 11:24:18 79.59, -93.68 105.30 0.35 73
6 02/15/2018 12:14:52 -79.82, 75.68 75.12 02/15/2018 12:14:56 -79.81, 75.68 75.12 0.06 4
7 02/18/2018 03:41:58 79.65, 22.68 104.22 02/18/2018 03:41:09 79.65, 22.67 104.26 0.36 49
8 02/18/2018 04:31:19 -79.88,-167.90 76.15 02/18/2018 04:31:47 -79.88,-167.93 76.17 0.70 28
9 02/20/2018 19:58:24 79.75, 139.31 103.12 02/20/2018 19:57:59 79.75, 139.30 103.14 0.45 25
10 02/20/2018 20:47:46 -79.94, -51.51 77.20 02/20/2018 20:48:38 -79.94, -51.54 77.23 0.79 52
11 02/23/2018 12:14:50 79.81,-104.35 102.05 02/23/2018 12:14:49 79.81,-104.36 102.06 0.10 1




NCC Satellite Simultaneous Nadir Overpasses (SNOs) Prediction Service
